This demonstration page uses our WeatherBlox Daily Observations layout. Learn more.

Hourly Observations for February 20, 2019

Temp ( °F °C ) Dew Point ( °F °C ) Humidity (%) Winds ( mph kmh ) Pressure ( in mb ) Visibility ( mi km ) Precip ( " mm )
12:11 am 00:11 Cloudy with Light Snow 22 -5.6 19 -7.2 89 89 NW 3 6 30.03 1017 0.75 1.207005 0 0.0254
12:25 am 00:25 Mostly Cloudy with Snow 22 -5.6 19 -7.2 89 89 NNW 5 7 30.02 1017 0.5 0.80467 0.02 0.508
12:51 am 00:51 Cloudy with Light Snow 21 -6 19 -7 93 93 NNW 5 7 30.01 1016 0.75 1.207005 0.03 0.762
12:54 am 00:54 Cloudy with Light Snow 21 -6.1 19 -7.2 92 92 NNW 5 7 29.97 1015 1 1.60934 0.03 0.762
1:05 am 01:05 Cloudy with Light Snow 21 -6.1 19 -7.2 92 92 N 5 7 30 1016 2 3.21868 0.01 0.254
1:31 am 01:31 Cloudy with Light Freezing Rain 21 -6.1 19 -7.2 92 92 N 6 9 29.99 1016 2.5 4.02335 0.01 0.254
1:47 am 01:47 Cloudy with Light Freezing Rain 21 -6.1 20 -6.7 96 96 N 7 11 29.97 1015 2 3.21868 0.01 0.254
1:54 am 01:54 Cloudy with Light Freezing Rain 21 -6.1 20 -6.7 96 96 N 7 11 29.93 1014 2 3.21868 0.01 0.254
2:10 am 02:10 Cloudy with Light Snow 21 -6.1 20 -6.7 96 96 N 7 11 29.96 1015 1.75 2.816345 0 0.0254
2:54 am 02:54 Cloudy with Light Snow 22 -5.6 20 -6.7 92 92 NE 5 7 29.89 1012 1.75 2.816345 0.01 0.254
3:29 am 03:29 Cloudy with Light Snow 22 -5.6 20 -6.7 92 92 NE 3 6 29.91 1013 2 3.21868 0 0.0254
3:54 am 03:54 Cloudy with Light Snow 22 -5.6 21 -6.1 96 96 Calm 29.85 1011 2 3.21868 0 0.0254
4:02 am 04:02 Cloudy with Light Snow 22 -5.6 20 -6.7 92 92 Calm 29.88 1012 2 3.21868 0 0.0254
4:47 am 04:47 Cloudy with Light Snow 22 -5.6 20 -6.7 92 92 N 3 6 29.86 1011 1.75 2.816345 0 0.0254
4:54 am 04:54 Cloudy with Light Snow 22 -5.6 20 -6.7 92 92 NNE 3 6 29.82 1010 1.75 2.816345 0 0.0254
5:15 am 05:15 Cloudy with Light Snow 22 -5.6 20 -6.7 92 92 NNE 3 6 29.85 1011 1.5 2.41401 0.01 0.254
5:42 am 05:42 Cloudy with Light Snow 22 -5.6 20 -6.7 92 92 Calm 29.84 1010 1.5 2.41401 0.02 0.508
5:50 am 05:50 Cloudy with Light Snow 21 -6 19 -7 93 93 N 3 6 29.83 1010 2 3.21868 0.02 0.508
5:51 am 05:51 Cloudy with Light Snow 21 -6.1 19 -7.2 92 92 N 3 6 29.8 1009 2 3.21868 0.02 0.508
6:17 am 06:17 Cloudy with Light Snow 21 -6.1 19 -7.2 92 92 NNW 5 7 29.82 1010 1.75 2.816345 0 0.0254
6:28 am 06:28 Cloudy with Light Snow 21 -6.1 19 -7.2 92 92 NNW 3 6 29.82 1010 3 4.82802 0 0.0254
6:38 am 06:38 Cloudy with Mist and Fog 21 -6.1 19 -7.2 92 92 NNW 3 6 29.82 1010 3 4.82802 0 0.0254
6:41 am 06:41 Cloudy with Light Snow 21 -6.1 19 -7.2 92 92 NNW 3 6 29.81 1009 2.5 4.02335 0 0.0254
6:44 am 06:44 Cloudy with Light Snow 21 -6.1 19 -7.2 92 92 NNW 3 6 29.81 1009 1.75 2.816345 0 0.0254
6:52 am 06:52 Cloudy with Light Snow 21 -6 19 -7 93 93 NNW 3 6 29.81 1009 1.25 2.011675 0.01 0.254
6:54 am 06:54 Cloudy with Light Snow 21 -6.1 19 -7.2 92 92 NNW 3 6 29.77 1008 1.25 2.011675 0.01 0.254
7:03 am 07:03 Cloudy with Light Snow 21 -6.1 19 -7.2 92 92 NNW 3 6 29.81 1009 1.75 2.816345 0 0.0254
7:28 am 07:28 Cloudy with Light Snow 21 -6.1 19 -7.2 92 92 Calm 29.8 1009 1.5 2.41401 0 0.0254
7:54 am 07:54 Cloudy with Mist and Fog 21 -6.1 19 -7.2 92 92 Calm 29.76 1008 2 3.21868 0 0.0254
8:54 am 08:54 Cloudy with Mist and Fog 23 -5 20 -6.7 88 88 W 3 6 29.77 1008 2.5 4.02335 0 0
9:09 am 09:09 Cloudy with Light Snow 23 -5 20 -6.7 88 88 Calm 29.8 1009 1.5 2.41401 0 0.0254
9:26 am 09:26 Cloudy with Light Snow 24 -4.4 21 -6.1 88 88 SW 6 9 29.8 1009 2 3.21868 0 0.0254
9:54 am 09:54 Cloudy with Light Snow 25 -3.9 21 -6.1 85 85 WSW 9 15 29.76 1008 3 4.82802 0 0.0254
10:54 am 10:54 Cloudy 26 -3.3 20 -6.7 78 78 W 15 24 29.76 1008 7 11.26538 0 0.0254
11:31 am 11:31 Mostly Cloudy 26 -3.3 18 -7.8 71 71 W 14 22 29.82 1010 7 11.26538 0 0
11:38 am 11:38 Partly Cloudy 26 -3.3 18 -7.8 71 71 W 15 24 29.82 1010 7 11.26538 0 0
11:54 am 11:54 Partly Cloudy 26 -3.3 18 -7.8 71 71 W 13 20 29.79 1009 7 11.26538 0 0
12:54 pm 12:54 Sunny 26 -3.3 17 -8.3 69 69 W 17 28 29.78 1008 7 11.26538 0 0
1:54 pm 13:54 Sunny 26 -3.3 18 -7.8 71 71 SW 13 20 29.77 1008 7 11.26538 0 0
2:54 pm 14:54 Hazy 29 -1.7 19 -7.2 66 66 WSW 13 20 29.76 1008 5 8.0467 0 0
3:54 pm 15:54 Sunny 29 -1.7 19 -7.2 66 66 WSW 14 22 29.79 1009 9 14.48406 0 0
4:54 pm 16:54 Sunny 29 -1.7 20 -6.7 69 69 WSW 13 20 29.82 1010 9 14.48406 0 0
5:54 pm 17:54 Sunny 28 -2.2 16 -8.9 60 60 WSW 14 22 29.84 1011 10 16.0934 0 0
6:54 pm 18:54 Clear 22 -5.6 13 -10.6 68 68 SW 8 13 29.88 1012 10 16.0934 0 0
7:54 pm 19:54 Clear 21 -6.1 13 -10.6 71 71 WSW 6 9 29.94 1014 10 16.0934 0 0
8:54 pm 20:54 Clear 19 -7.2 11 -11.7 71 71 WSW 3 6 29.97 1015 10 16.0934 0 0
9:54 pm 21:54 Clear 17 -8.3 11 -11.7 77 77 WNW 5 7 29.99 1016 10 16.0934 0 0
10:54 pm 22:54 Clear 15 -9.4 9 -12.8 77 77 Calm 30.02 1017 10 16.0934 0 0
11:54 pm 23:54 Clear 15 -9.4 8 -13.3 74 74 SW 5 7 30.05 1018 10 16.0934 0 0

Powered by AerisWeather